{"data":{"norad_id":55802,"intl_designator":"2023-029G","name":"ONEWEB-0638","alt_names":[],"object_type":"PAYLOAD","status":"ACTIVE","operator":null,"country":"UK","launch_date":"2023-03-09","launch_site_code":"AFETR","launch_vehicle":null,"mission":null,"orbit_class":"UNKNOWN","rcs_meters":null,"size_class":null,"mass_kg":null,"dimensions":null,"purposes":["comms"],"wikipedia_slug":null,"has_3d_model":false,"image_url":null,"decayed_at":null,"tle_current":{"epoch":"2026-09-20T00:10:13.842624Z","epoch_age_seconds":64476,"freshness":"FRESH","line1":"1 55802U 23029G   26263.00710466  .00000185  00000+0  46504-3 0  9994","line2":"2 55802  87.8892 270.8308 0002408  90.8084 269.3322 13.14501705171851","mean_motion":13.14501705,"eccentricity":0.0002408,"inclination_deg":87.8892,"raan_deg":270.8308,"arg_perigee_deg":90.8084,"mean_anomaly_deg":269.3322,"bstar":0.00046504,"rev_number":17185,"period_min":109.54721431875,"perigee_km":1203.968355607,"apogee_km":1207.6207770494,"semimajor_km":7583.9315663282,"source":"CELESTRAK","updated_at":"2026-09-20T09:00:44.760008Z"}}}